[[{"header":{"parameterUnit":"m.s-1","parameterCategory":1,"la1":30.2991,"la2":30.254,"lo1":-89.0895,"lo2":-89.0444,"dy":0.0017,"dx":0.0017,"nx":28,"ny":28,"refTime":"2025-01-03T03:00:00:Z","depth":0,"parameterNumber":2,"parameterNumberName":"U-component_of_WINDS"},"data":[0,0,0,0,0,0,0,0,0,0,0,0,0,0,0,0,0,0,0,0,0,0,0,0,0,0,0,0,0,0,0,0,0,0,0,0,0,0,0,0,0,0,0,0,0,0,0,0,0,0,0,0,0,0,0,0,0,0,0.1034,0.1034,0,0.1105,0.1106,0.1106,0.1176,0.1177,0.1178,0.1179,0.1254,0.1255,0.1256,0,0,0,0,0,0,0,0,0,0,0,0,0,0.096,0.0961,0.1033,0.1034,0.1035,0.1105,0.1106,0.1107,0.1176,0.1177,0.1178,0.1179,0.1253,0.1255,0.1256,0,0,0,0,0,0,0,0,0,0,0,0,0,0.1008,0.0961,0.1033,0.1078,0.1083,0.1104,0.1106,0.1107,0.1176,0.1177,0.1179,0.118,0.1253,0.1255,0.1256,0.124,0,0,0.1262,0.1262,0,0,0,0,0,0,0,0,0.1005,0.101,0.1071,0.1075,0.108,0.1133,0.1107,0.1151,0.1175,0.1141,0.1179,0.118,0.1213,0.1218,0.1228,0.1243,0.1247,0.1262,0.1263,0.1264,0.1264,0,0,0,0,0,0,0,0.1002,0.1008,0.1062,0.1072,0.1077,0.1096,0.1104,0.1116,0.1168,0.1144,0.1149,0.1156,0.1216,0.1226,0.1231,0.1248,0.1262,0.1263,0.1264,0.1265,0.1254,0.1252,0,0,0,0,0,0,0.0991,0.1004,0.1059,0.1064,0.1045,0.1096,0.1105,0.1115,0.1168,0.1178,0.1155,0.1159,0.1223,0.1228,0.1233,0.1218,0.1264,0.1265,0.1266,0.1255,0.1253,0.1252,0,0,0,0,0,0,0.0989,0.0995,0.1057,0.1036,0.1045,0.1096,0.1106,0.1115,0.1126,0.1177,0.1187,0.1156,0.1224,0.1231,0.1238,0.1221,0.1266,0.1268,0.1256,0.1254,0.1252,0.1185,0,0,0,0,0,0,0.0987,0.0994,0.0988,0.1035,0.1046,0.1059,0.1105,0.1116,0.1129,0.1135,0.1181,0.1189,0.1226,0.1235,0.1239,0.1224,0.1269,0.1258,0.1255,0.1253,0.1189,0.1181,0.1174,0,0,0,0,0,0.0984,0.0966,0.0987,0.0993,0.1038,0.1057,0.1064,0.1105,0.1127,0.1121,0.1154,0.1188,0.1222,0.1235,0.1241,0.1226,0.1259,0.1256,0.1253,0.1192,0.1183,0.1174,0,0,0,0,0,0,0.0917,0.0973,0.0997,0.0994,0.102,0.1069,0.1063,0.1093,0.1115,0.112,0.1171,0.1181,0.1181,0.1205,0.1218,0.1213,0.1246,0.1244,0.1197,0.1189,0.1181,0.1175,0.127,0,0,0,0,0,0.0901,0.0911,0.0961,0.0953,0.0965,0.1012,0.1022,0.1051,0.1081,0.1093,0.1126,0.1154,0.1171,0.1181,0.12,0.1193,0.1204,0.1186,0.1179,0.1172,0.117,0.1168,0.116,0.1242,0.1242,0.1242,0,0,0.087,0.0902,0.0905,0.0941,0.0964,0.0974,0.1021,0.1029,0.1037,0.1094,0.1102,0.1127,0.1163,0.1162,0.1164,0.1182,0.115,0.1169,0.1163,0.1164,0.1164,0.1156,0.1149,0.124,0.124,0.124,0,0,0.0817,0.0843,0.0839,0.0862,0.0898,0.0929,0.0928,0.0973,0.0991,0.1,0.1043,0.1054,0.1083,0.1106,0.1121,0.1078,0.111,0.1083,0.1044,0.1042,0.1035,0.103,0.1014,0.1008,0.108,0.108,0.108,0,0.0774,0.0789,0.0834,0.0839,0.0854,0.0906,0.0903,0.0923,0.0963,0.0972,0.0992,0.1029,0.1056,0.1062,0.1051,0.1062,0.1063,0.1077,0.1032,0.1027,0.1023,0.1009,0.1003,0.1077,0.1077,0.1077,0.1078,0,0.0734,0.0744,0.0738,0.0774,0.0788,0.0789,0.0834,0.0843,0.0872,0.0901,0.091,0.0945,0.0971,0.0975,0.1004,0.0985,0.0995,0.1023,0.1056,0.1011,0.0998,0.0993,0.1072,0.1073,0.1074,0.1075,0,0,0.064,0.0701,0.0698,0.0715,0.0758,0.0767,0.0772,0.0797,0.0804,0.083,0.0835,0.0858,0.0884,0.0901,0.0933,0.0931,0.0895,0.096,0.0961,0.0946,0.0877,0.0855,0.0847,0.0917,0.0916,0.0915,0.0873,0,0.0594,0.0604,0.0644,0.0642,0.0652,0.0702,0.0706,0.0733,0.0761,0.0774,0.0806,0.0821,0.0854,0.0865,0.0866,0.0899,0.0881,0.0903,0.0922,0.0922,0.091,0.0841,0.0818,0.0777,0.0869,0.0868,0.0867,0,0.0542,0.0564,0.0562,0.0605,0.0611,0.0613,0.064,0.0652,0.0685,0.0705,0.0725,0.076,0.0769,0.0801,0.0813,0.0826,0.0837,0.0855,0.0854,0.0857,0.0891,0.0841,0.0765,0.0758,0.086,0.0861,0.0861,0,0.0472,0.0502,0.0505,0.0518,0.0569,0.0569,0.059,0.0624,0.0637,0.0661,0.067,0.0694,0.0708,0.0727,0.0768,0.0788,0.0776,0.0811,0.0793,0.0792,0.0787,0.0787,0.071,0.0795,0.0796,0.0796,0.0796,0,0.0417,0.0413,0.0474,0.0475,0.0474,0.0521,0.0519,0.0545,0.0575,0.0583,0.0629,0.0635,0.069,0.0704,0.0737,0.0742,0.0748,0.0765,0.0773,0.076,0.0758,0.0767,0.0771,0.0794,0.0794,0.0795,0.0795,0,0.0338,0.0379,0.0385,0.0432,0.0444,0.0441,0.0482,0.0486,0.0517,0.0527,0.0532,0.0581,0.0599,0.0642,0.0673,0.0695,0.0691,0.0708,0.0679,0.0685,0.0664,0.0665,0.059,0.0583,0.0673,0.0672,0.0671,0,0.0299,0.0298,0.0345,0.0353,0.0372,0.0385,0.0398,0.0446,0.0457,0.0495,0.0494,0.0516,0.0536,0.0563,0.0602,0.0625,0.0642,0.0614,0.0646,0.0632,0.0641,0.064,0.064,0.0607,0.0606,0.0605,0.0604,0,0.0225,0.0246,0.0262,0.0286,0.03,0.0321,0.0345,0.0349,0.0403,0.0414,0.0433,0.0448,0.0479,0.05,0.0529,0.0553,0.0587,0.0594,0.0591,0.0576,0.056,0.0568,0.0659,0.0595,0.0596,0.0596,0.0597,0.0597,0.0165,0.0166,0.0199,0.0217,0.0239,0.026,0.0266,0.0298,0.0314,0.0342,0.0369,0.0385,0.0419,0.0462,0.0483,0.0497,0.0515,0.051,0.0509,0.0507,0.0501,0.0558,0.0503,0.0503,0.0504,0.0504,0.0504,0,0.0093,0.0117,0.0132,0.0164,0.0177,0.0208,0.0236,0.0246,0.0259,0.0287,0.0306,0.0328,0.0349,0.0389,0.0414,0.0417,0.0434,0.0422,0.0422,0.0426,0.0484,0.0484,0.0408,0.0408,0.0408,0.0408,0.0408,0.0408,0.0057,0.006,0.0085,0.01,0.0125,0.014,0.0153,0.0173,0.0196,0.0218,0.0235,0.0261,0.0295,0.0322,0.0343,0.0355,0.0361,0.0344,0.0361,0.0413,0.0422,0.0431,0.0431,0.0346,0.0346,0.0302,0.0302,0.0301]},{"header":{"parameterUnit":"m.s-1","parameterCategory":1,"la1":30.2991,"la2":30.254,"lo1":-89.0895,"lo2":-89.0444,"dy":0.0017,"dx":0.0017,"nx":28,"ny":28,"refTime":"2025-01-03T03:00:00:Z","depth":0,"parameterNumber":3,"parameterNumberName":"V-component_of_WINDS"},"data":[0,0,0,0,0,0,0,0,0,0,0,0,0,0,0,0,0,0,0,0,0,0,0,0,0,0,0,0,0,0,0,0,0,0,0,0,0,0,0,0,0,0,0,0,0,0,0,0,0,0,0,0,0,0,0,0,0,0,-2.9228,-2.923,0,-2.9359,-2.9361,-2.9362,-2.9416,-2.9416,-2.9416,-2.9416,-2.9546,-2.955,-2.9553,0,0,0,0,0,0,0,0,0,0,0,0,0,-2.9025,-2.9028,-2.9228,-2.923,-2.9231,-2.9359,-2.9361,-2.9362,-2.9417,-2.9416,-2.9416,-2.9416,-2.9545,-2.9549,-2.9554,0,0,0,0,0,0,0,0,0,0,0,0,0,-2.913,-2.903,-2.9228,-2.9274,-2.9279,-2.9359,-2.9361,-2.9363,-2.9417,-2.9416,-2.9416,-2.9415,-2.9543,-2.9549,-2.9554,-2.9597,0,0,-2.9571,-2.9574,0,0,0,0,0,0,0,0,-2.9124,-2.9138,-2.9265,-2.9271,-2.9277,-2.9371,-2.9337,-2.9441,-2.9417,-2.9364,-2.9416,-2.9415,-2.9488,-2.9498,-2.9523,-2.9603,-2.9608,-2.9572,-2.9575,-2.9578,-2.9579,0,0,0,0,0,0,0,-2.9117,-2.9132,-2.928,-2.9267,-2.9274,-2.9288,-2.9303,-2.9357,-2.9427,-2.9369,-2.9373,-2.9388,-2.9491,-2.9518,-2.9527,-2.961,-2.9572,-2.9577,-2.958,-2.9582,-2.9735,-2.9736,0,0,0,0,0,0,-2.9102,-2.9126,-2.9276,-2.9284,-2.9198,-2.9292,-2.9308,-2.9341,-2.9426,-2.9439,-2.9388,-2.939,-2.9509,-2.952,-2.9532,-2.959,-2.9578,-2.9583,-2.9586,-2.9735,-2.9736,-2.9736,0,0,0,0,0,0,-2.9098,-2.9115,-2.927,-2.9206,-2.9227,-2.9296,-2.9333,-2.9344,-2.9371,-2.9441,-2.9453,-2.9403,-2.9509,-2.9524,-2.9581,-2.9595,-2.9585,-2.959,-2.9734,-2.9735,-2.9736,-2.9704,0,0,0,0,0,0,-2.9091,-2.9113,-2.9129,-2.9206,-2.923,-2.9318,-2.9333,-2.9347,-2.9381,-2.9385,-2.9458,-2.947,-2.951,-2.9573,-2.9587,-2.9603,-2.9595,-2.9733,-2.9734,-2.9736,-2.9705,-2.9704,-2.9704,0,0,0,0,0,-2.9084,-2.9113,-2.913,-2.9148,-2.9252,-2.9318,-2.9332,-2.9378,-2.9382,-2.9399,-2.9445,-2.9467,-2.9591,-2.9578,-2.9595,-2.9612,-2.9732,-2.9734,-2.9736,-2.9705,-2.9704,-2.9704,0,0,0,0,0,0,-2.9034,-2.9124,-2.9143,-2.9198,-2.9251,-2.9327,-2.9351,-2.9376,-2.9427,-2.9428,-2.9483,-2.9499,-2.9552,-2.9588,-2.9572,-2.966,-2.9664,-2.9669,-2.9635,-2.9635,-2.9635,-2.9625,-2.9599,0,0,0,0,0,-2.903,-2.9076,-2.9152,-2.9194,-2.9219,-2.928,-2.9311,-2.9343,-2.9398,-2.942,-2.947,-2.9522,-2.9574,-2.9606,-2.9657,-2.971,-2.9728,-2.973,-2.973,-2.973,-2.9733,-2.9768,-2.9771,-2.9742,-2.9742,-2.9742,0,0,-2.902,-2.9075,-2.9101,-2.9185,-2.9229,-2.9277,-2.9298,-2.9347,-2.9383,-2.9427,-2.9486,-2.9524,-2.9587,-2.9644,-2.9671,-2.9675,-2.9746,-2.9732,-2.9731,-2.9735,-2.977,-2.9773,-2.9775,-2.9743,-2.9743,-2.9743,0,0,-2.9029,-2.9074,-2.9116,-2.9161,-2.9228,-2.927,-2.928,-2.9354,-2.9382,-2.9443,-2.9478,-2.9522,-2.9608,-2.9652,-2.9686,-2.9717,-2.974,-2.9731,-2.973,-2.9763,-2.9766,-2.9768,-2.9781,-2.9785,-2.9735,-2.9735,-2.9735,0,-2.9008,-2.9082,-2.9133,-2.9182,-2.9219,-2.9264,-2.9307,-2.9348,-2.9428,-2.9453,-2.9456,-2.9569,-2.9613,-2.9683,-2.9691,-2.9716,-2.9731,-2.9723,-2.9761,-2.9764,-2.9767,-2.9781,-2.9785,-2.9733,-2.9734,-2.9734,-2.9734,0,-2.9055,-2.9106,-2.9132,-2.9212,-2.9251,-2.9296,-2.9355,-2.939,-2.9419,-2.946,-2.9523,-2.9579,-2.9644,-2.9663,-2.969,-2.9738,-2.9738,-2.9751,-2.9756,-2.9768,-2.9782,-2.9787,-2.9731,-2.9732,-2.9732,-2.9733,0,0,-2.9032,-2.9144,-2.9152,-2.9191,-2.9271,-2.9312,-2.936,-2.9426,-2.9456,-2.9511,-2.9554,-2.9628,-2.9642,-2.9681,-2.9714,-2.9743,-2.9768,-2.9753,-2.9755,-2.9755,-2.9827,-2.9818,-2.9823,-2.9784,-2.9785,-2.9786,-2.9822,0,-2.9053,-2.9144,-2.9193,-2.9263,-2.9313,-2.9358,-2.9401,-2.9456,-2.9496,-2.9545,-2.9589,-2.9642,-2.9655,-2.9679,-2.971,-2.9758,-2.9783,-2.9756,-2.9826,-2.9827,-2.981,-2.983,-2.982,-2.9851,-2.9828,-2.9829,-2.9829,0,-2.9088,-2.9146,-2.9221,-2.9301,-2.9324,-2.9361,-2.9428,-2.9473,-2.9537,-2.9565,-2.961,-2.9644,-2.9699,-2.97,-2.9777,-2.9758,-2.979,-2.9818,-2.9821,-2.9829,-2.9829,-2.9841,-2.9862,-2.9867,-2.9838,-2.9837,-2.9836,0,-2.9067,-2.9164,-2.9223,-2.9254,-2.9347,-2.9373,-2.9413,-2.9476,-2.9514,-2.9572,-2.9598,-2.966,-2.9695,-2.9743,-2.9794,-2.979,-2.9867,-2.9872,-2.9893,-2.9892,-2.9907,-2.9906,-2.9935,-2.9925,-2.9925,-2.9925,-2.9925,0,-2.9086,-2.913,-2.9215,-2.9251,-2.9304,-2.9362,-2.9412,-2.9455,-2.9513,-2.9559,-2.9601,-2.9643,-2.9708,-2.9758,-2.9798,-2.9858,-2.9872,-2.9897,-2.9907,-2.9894,-2.9891,-2.9916,-2.9916,-2.9926,-2.9926,-2.9926,-2.9925,0,-2.907,-2.9129,-2.9197,-2.9281,-2.9304,-2.9339,-2.9411,-2.9449,-2.9494,-2.9552,-2.9569,-2.9639,-2.9701,-2.9757,-2.9838,-2.9866,-2.9927,-2.9939,-2.9906,-2.9912,-2.9931,-2.9929,-2.9979,-2.9989,-2.997,-2.997,-2.997,0,-2.9079,-2.9115,-2.9205,-2.924,-2.928,-2.9335,-2.9376,-2.9435,-2.9475,-2.9553,-2.9582,-2.9648,-2.9704,-2.9802,-2.986,-2.9923,-2.9938,-2.9951,-2.9948,-2.9935,-2.9941,-2.9939,-2.9944,-2.9951,-2.9951,-2.9951,-2.9951,0,-2.9088,-2.9117,-2.9173,-2.9242,-2.929,-2.9346,-2.9403,-2.9429,-2.9499,-2.9542,-2.9609,-2.9652,-2.9739,-2.9804,-2.9875,-2.9916,-2.9946,-2.9952,-2.996,-2.9948,-2.9928,-2.9942,-2.9907,-2.995,-2.995,-2.995,-2.995,-2.995,-2.9086,-2.9123,-2.9193,-2.9256,-2.9307,-2.9361,-2.9402,-2.9454,-2.951,-2.9586,-2.9618,-2.9685,-2.9752,-2.9851,-2.9893,-2.9947,-2.9952,-2.9964,-2.9967,-2.997,-2.9969,-2.9919,-2.996,-2.996,-2.996,-2.996,-2.996,0,-2.91,-2.9149,-2.9207,-2.9288,-2.9339,-2.9364,-2.9431,-2.9471,-2.9531,-2.9591,-2.9647,-2.9725,-2.979,-2.9855,-2.9924,-2.9955,-2.9971,-2.9972,-2.997,-2.998,-2.9959,-2.9946,-2.9958,-2.9958,-2.9958,-2.9958,-2.9958,-2.9958,-2.9113,-2.9177,-2.9215,-2.9305,-2.9354,-2.9422,-2.9458,-2.9509,-2.9558,-2.9644,-2.97,-2.9743,-2.9806,-2.9881,-2.9942,-2.996,-2.9984,-2.9982,-3.0003,-2.9982,-2.9981,-2.998,-2.9969,-2.9986,-2.9986,-3.002,-3.002,-3.0021]}]]